{"data":{"norad_id":67725,"epoch":"2026-05-25T02:27:06.910848Z","epoch_age_seconds":59442,"freshness":"FRESH","line1":"1 67725U 26026E   26145.10216332  .00030782  00000+0  95079-3 0  9991","line2":"2 67725  97.2864 198.5843 0000231 147.3097 212.8160 15.33482991 15832","mean_motion":15.33482991,"eccentricity":2.31e-5,"inclination_deg":97.2864,"raan_deg":198.5843,"arg_perigee_deg":147.3097,"mean_anomaly_deg":212.816,"bstar":0.00095079,"rev_number":1583,"period_min":93.903878194369,"perigee_km":465.27205592372,"apogee_km":465.58822872569,"semimajor_km":6843.5671423247,"source":"CELESTRAK","updated_at":"2026-05-25T13:38:21.685631Z"}}